Location: *
(51.0333°S, 178.4667°E)
Time: 11:42:00
(UTC+00:00)

STARLINK-81 - Pass Details

Date: 15 November 2019
Orbit: 529 x 530 km, 53.0° (Epoch: 07 December)

Event Time Altitude Azimuth Distance (km) Brightness Sun altitude
Rises 09:27:19 0° 266° (W) 2,679 7.7 -13.7°
Reaches altitude 10° 09:29:33 10° 263° (W) 1,790 6.8 -13.9°
Maximum altitude 09:33:35 64° 181° (S) 595 4.0 -14.3°
Drops below altitude 10° 09:37:38 10° 98° (E) 1,792 6.0 -14.6°
Enters shadow 09:38:45 - 96° (E) 2,234 6.5 -14.7°
